Vlieland, Netherlands

5:57 PM CEST on June 27, 2017 (GMT +0200)
Vlieland

Weather History for EHVL - November, 2012

Change the Weather History Date:

Sunday, November 11, 2012

  Actual Average Record
Temperature  
Mean Temperature 50 °F -  
Max Temperature 51 °F 45 °F 59 °F (2005)
Min Temperature 48 °F 40 °F 30 °F (2016)
Degree Days  
Heating Degree Days 16    
Moisture  
Dew Point 44 °F    
Average Humidity 83    
Maximum Humidity 100    
Minimum Humidity 71    
Precipitation  
Precipitation 0.00 in - - ()
Sea Level Pressure  
Sea Level Pressure 29.75 in    
Wind  
Wind Speed 16 mph ()    
Max Wind Speed 21 mph    
Max Gust Speed -    
Visibility 6.0 miles    
Events Rain    
Averages and records for this station are not official NWS values.
T = Trace of Precipitation, MM = Missing Value Source: Averaged Metar Reports

Daily Weather History Graph

Daily Weather History Graph

Search for Another Location

Airport or City:

Trip Planner

Search our weather history database for the weather conditions in past years. The results will help you decide how hot, cold, wet, or windy it might be!

Date:

Astronomy

Nov. 11, 2012 Rise Set
Actual Time 7:58 AM CET 4:49 PM CET
Civil Twilight 7:19 AM CET 5:28 PM CET
Nautical Twilight 6:37 AM CET 6:10 PM CET
Astronomical Twilight 5:57 AM CET 6:50 PM CET
Moon 4:33 AM CET (11/11) 3:19 PM CET (11/11)
Length of Visible Light 10h 08m
Length of Day
8h 51m
Waning Crescent, 9% of the Moon is Illuminated
Nov 11
Waning Crescent
Nov 13
New
Nov 20
First Quarter
Nov 28
Full
Dec 6
Last Quarter

Hourly Weather History & Observations

Time (CET) Temp. Dew Point Humidity Pressure Visibility Wind Dir Wind Speed Gust Speed Precip Events Conditions
12:11 AM 48.2 °F 46.4 °F 93% 29.44 in 5.0 mi NW 16.1 mph - N/A Rain Rain
12:12 AM 48.2 °F 48.2 °F 100% 29.44 in 6.2 mi NW 16.1 mph - N/A Rain Heavy Rain Showers
12:25 AM 48.2 °F 48.2 °F 100% 29.44 in 6.2 mi WNW 15.0 mph - N/A Rain Light Rain
12:34 AM 48.2 °F 48.2 °F 100% 29.44 in 6.2 mi WNW 12.7 mph - N/A Rain Light Rain
12:38 AM 48.2 °F 48.2 °F 100% 29.44 in 6.2 mi WNW 13.8 mph - N/A Rain Light Rain
12:42 AM 48.2 °F 48.2 °F 100% 29.44 in 4.3 mi WNW 16.1 mph - N/A Rain Light Rain
12:55 AM 48.2 °F 48.2 °F 100% 29.47 in 3.7 mi WNW 17.3 mph - N/A Rain Light Rain Showers
1:00 AM 48.2 °F 46.4 °F 93% 29.47 in 3.1 mi WNW 18.4 mph - N/A Rain Rain Showers
1:05 AM 48.2 °F 46.4 °F 93% 29.47 in - WNW 17.3 mph - N/A Rain Rain
1:09 AM 48.2 °F 46.4 °F 93% 29.47 in 3.1 mi WNW 18.4 mph - N/A Rain Rain
1:14 AM 48.2 °F 46.4 °F 93% 29.47 in 5.0 mi WNW 19.6 mph - N/A Rain Light Rain
1:19 AM 48.2 °F 48.2 °F 100% 29.47 in 5.0 mi WNW 19.6 mph - N/A Rain Light Rain
1:25 AM 48.2 °F 48.2 °F 100% 29.47 in 5.6 mi WNW 19.6 mph - N/A Rain Light Rain
1:34 AM 48.2 °F 46.4 °F 93% 29.47 in 4.3 mi WNW 19.6 mph - N/A Rain Light Rain Showers
1:35 AM 48.2 °F 46.4 °F 93% 29.47 in 5.0 mi WNW 19.6 mph - N/A Rain Light Rain Showers
1:51 AM 48.2 °F 46.4 °F 93% 29.50 in 6.2 mi WNW 17.3 mph - N/A Rain Light Rain Showers
1:55 AM 48.2 °F 46.4 °F 93% 29.50 in 6.2 mi WNW 16.1 mph - N/A Rain Light Rain
2:25 AM 48.2 °F 46.4 °F 93% 29.50 in 6.2 mi WNW 13.8 mph - N/A Rain Light Rain
2:41 AM 48.2 °F 46.4 °F 93% 29.50 in 6.2 mi West 11.5 mph - N/A   Mostly Cloudy
2:45 AM 48.2 °F 46.4 °F 93% 29.50 in 6.2 mi West 12.7 mph - N/A   Mostly Cloudy
2:46 AM 48.2 °F 46.4 °F 93% 29.50 in 6.2 mi West 13.8 mph - N/A   Mostly Cloudy
2:55 AM 48.2 °F 46.4 °F 93% 29.50 in 6.2 mi WNW 15.0 mph - N/A   Mostly Cloudy
2:56 AM 48.2 °F 48.2 °F 100% 29.53 in 6.2 mi West 16.1 mph - N/A   Overcast
3:07 AM 48.2 °F 46.4 °F 93% 29.53 in 6.2 mi West 16.1 mph - N/A   Overcast
3:11 AM 48.2 °F 46.4 °F 93% 29.53 in 6.2 mi West 17.3 mph - N/A   Mostly Cloudy
3:17 AM 48.2 °F 46.4 °F 93% 29.53 in 6.2 mi West 17.3 mph - N/A   Scattered Clouds
3:25 AM 48.2 °F 46.4 °F 93% 29.53 in 6.2 mi West 17.3 mph - N/A   Mostly Cloudy
3:46 AM 50.0 °F 46.4 °F 87% 29.53 in 6.2 mi West 15.0 mph - N/A   Mostly Cloudy
3:55 AM 50.0 °F 46.4 °F 87% 29.53 in 6.2 mi West 17.3 mph - N/A   Overcast
4:02 AM 48.2 °F 46.4 °F 93% 29.56 in 6.2 mi West 20.7 mph - N/A   Partly Cloudy
4:25 AM 48.2 °F 46.4 °F 93% 29.56 in 6.2 mi West 18.4 mph - N/A   Partly Cloudy
4:29 AM 50.0 °F 46.4 °F 87% 29.56 in 6.2 mi West 18.4 mph - N/A   Scattered Clouds
4:33 AM 50.0 °F 46.4 °F 87% 29.56 in 6.2 mi West 19.6 mph - N/A   Mostly Cloudy
4:39 AM 50.0 °F 46.4 °F 87% 29.56 in 6.2 mi West 19.6 mph - N/A   Scattered Clouds
4:46 AM 50.0 °F 44.6 °F 82% 29.56 in 6.2 mi West 19.6 mph - N/A   Scattered Clouds
4:55 AM 48.2 °F 44.6 °F 87% 29.59 in 6.2 mi West 18.4 mph - N/A   Mostly Cloudy
5:01 AM 50.0 °F 44.6 °F 82% 29.59 in 6.2 mi West 19.6 mph - N/A   Partly Cloudy
5:25 AM 48.2 °F 44.6 °F 87% 29.59 in 6.2 mi West 17.3 mph - N/A   Unknown
5:32 AM 48.2 °F 44.6 °F 87% 29.62 in 6.2 mi West 18.4 mph - N/A   Scattered Clouds
5:37 AM 50.0 °F 44.6 °F 82% 29.62 in 6.2 mi West 19.6 mph - N/A   Mostly Cloudy
5:42 AM 48.2 °F 44.6 °F 87% 29.62 in 6.2 mi West 18.4 mph - N/A   Scattered Clouds
5:55 AM 48.2 °F 42.8 °F 82% 29.62 in 6.2 mi West 17.3 mph - N/A   Partly Cloudy
6:25 AM 48.2 °F 42.8 °F 82% 29.62 in 6.2 mi West 17.3 mph - N/A   Partly Cloudy
6:55 AM 48.2 °F 42.8 °F 82% 29.65 in 6.2 mi West 16.1 mph - N/A   Unknown
7:25 AM 48.2 °F 42.8 °F 82% 29.65 in 6.2 mi West 16.1 mph - N/A   Partly Cloudy
7:55 AM 48.2 °F 42.8 °F 82% 29.68 in 6.2 mi West 16.1 mph - N/A   Partly Cloudy
8:25 AM 48.2 °F 42.8 °F 82% 29.68 in 6.2 mi West 15.0 mph - N/A   Unknown
8:55 AM 50.0 °F 42.8 °F 76% 29.71 in 6.2 mi WSW 16.1 mph - N/A   Scattered Clouds
9:25 AM 50.0 °F 41.0 °F 71% 29.74 in 6.2 mi WSW 15.0 mph - N/A   Partly Cloudy
9:55 AM 50.0 °F 42.8 °F 76% 29.74 in 6.2 mi WSW 15.0 mph - N/A   Mostly Cloudy
10:25 AM 51.8 °F 42.8 °F 71% 29.74 in 6.2 mi WSW 16.1 mph - N/A   Partly Cloudy
10:55 AM 51.8 °F 42.8 °F 71% 29.77 in 6.2 mi WSW 15.0 mph - N/A   Scattered Clouds
11:25 AM 51.8 °F 42.8 °F 71% 29.77 in 6.2 mi WSW 15.0 mph - N/A   Unknown
11:55 AM 51.8 °F 42.8 °F 71% 29.77 in 6.2 mi WSW 16.1 mph - N/A   Mostly Cloudy
12:25 PM 51.8 °F 42.8 °F 71% 29.77 in 6.2 mi WSW 15.0 mph - N/A   Partly Cloudy
12:51 PM 51.8 °F 42.8 °F 71% 29.80 in 6.2 mi WSW 17.3 mph - N/A   Mostly Cloudy
12:55 PM 50.0 °F 42.8 °F 76% 29.80 in 6.2 mi WSW 16.1 mph - N/A   Mostly Cloudy
1:11 PM 51.8 °F 44.6 °F 76% 29.80 in 6.2 mi West 18.4 mph - N/A   Mostly Cloudy
1:15 PM 51.8 °F 44.6 °F 76% 29.80 in 6.2 mi West 18.4 mph - N/A   Mostly Cloudy
1:25 PM 51.8 °F 42.8 °F 71% 29.80 in 6.2 mi West 18.4 mph - N/A   Partly Cloudy
1:55 PM 51.8 °F 42.8 °F 71% 29.80 in 6.2 mi WSW 19.6 mph - N/A   Unknown
2:25 PM 50.0 °F 44.6 °F 82% 29.83 in 6.2 mi West 18.4 mph - N/A   Partly Cloudy
2:55 PM 50.0 °F 42.8 °F 76% 29.83 in 6.2 mi West 18.4 mph - N/A   Unknown
3:25 PM 50.0 °F 42.8 °F 76% 29.86 in 6.2 mi WSW 16.1 mph - N/A   Mostly Cloudy
3:26 PM 50.0 °F 42.8 °F 76% 29.86 in 6.2 mi WSW 17.3 mph - N/A   Overcast
3:33 PM 50.0 °F 42.8 °F 76% 29.86 in 6.2 mi WSW 17.3 mph - N/A   Mostly Cloudy
3:45 PM 50.0 °F 42.8 °F 76% 29.86 in 6.2 mi West 17.3 mph - N/A   Mostly Cloudy
3:49 PM 50.0 °F 42.8 °F 76% 29.86 in 6.2 mi West 17.3 mph - N/A   Mostly Cloudy
3:55 PM 50.0 °F 42.8 °F 76% 29.86 in 6.2 mi West 17.3 mph - N/A   Mostly Cloudy
4:05 PM 50.0 °F 42.8 °F 76% 29.86 in 6.2 mi West 19.6 mph - N/A   Overcast
4:14 PM 50.0 °F 42.8 °F 76% 29.86 in 6.2 mi West 18.4 mph - N/A   Mostly Cloudy
4:20 PM 50.0 °F 42.8 °F 76% 29.89 in 6.2 mi West 18.4 mph - N/A   Overcast
4:25 PM 50.0 °F 42.8 °F 76% 29.89 in 6.2 mi West 18.4 mph - N/A   Overcast
4:29 PM 50.0 °F 41.0 °F 71% 29.89 in 6.2 mi West 18.4 mph - N/A   Overcast
4:30 PM 50.0 °F 41.0 °F 71% 29.89 in 6.2 mi West 17.3 mph - N/A   Overcast
4:55 PM 48.2 °F 41.0 °F 76% 29.89 in 6.2 mi West 17.3 mph - N/A   Overcast
5:25 PM 50.0 °F 41.0 °F 71% 29.89 in 6.2 mi West 17.3 mph - N/A   Overcast
5:35 PM 50.0 °F 42.8 °F 76% 29.92 in 6.2 mi West 16.1 mph - N/A   Overcast
5:36 PM 50.0 °F 42.8 °F 76% 29.92 in 6.2 mi West 17.3 mph - N/A   Overcast
5:44 PM 50.0 °F 42.8 °F 76% 29.92 in 6.2 mi West 17.3 mph - N/A   Overcast
5:48 PM 50.0 °F 42.8 °F 76% 29.92 in 6.2 mi West 17.3 mph - N/A   Overcast
5:55 PM 50.0 °F 42.8 °F 76% 29.92 in 6.2 mi West 16.1 mph - N/A   Mostly Cloudy
5:59 PM 50.0 °F 42.8 °F 76% 29.92 in 6.2 mi West 15.0 mph - N/A   Overcast
6:25 PM 50.0 °F 42.8 °F 76% 29.92 in 6.2 mi West 15.0 mph - N/A   Mostly Cloudy
6:29 PM 50.0 °F 42.8 °F 76% 29.92 in 6.2 mi West 16.1 mph - N/A   Mostly Cloudy
6:30 PM 50.0 °F 42.8 °F 76% 29.92 in 6.2 mi West 17.3 mph - N/A   Overcast
6:42 PM 50.0 °F 42.8 °F 76% 29.92 in 6.2 mi West 15.0 mph - N/A   Overcast
6:55 PM 48.2 °F 41.0 °F 76% 29.92 in 6.2 mi West 13.8 mph - N/A   Overcast
7:21 PM 48.2 °F 42.8 °F 82% 29.95 in 6.2 mi WSW 16.1 mph - N/A   Partly Cloudy
7:25 PM 48.2 °F 42.8 °F 82% 29.95 in 6.2 mi WSW 16.1 mph - N/A   Scattered Clouds
7:36 PM 48.2 °F 42.8 °F 82% 29.95 in 6.2 mi West 17.3 mph - N/A   Mostly Cloudy
7:37 PM 48.2 °F 41.0 °F 76% 29.95 in 6.2 mi West 17.3 mph - N/A   Mostly Cloudy
7:45 PM 48.2 °F 42.8 °F 82% 29.95 in 6.2 mi WSW 18.4 mph - N/A   Mostly Cloudy
7:55 PM 48.2 °F 42.8 °F 82% 29.95 in 6.2 mi West 17.3 mph - N/A   Mostly Cloudy
7:59 PM 48.2 °F 42.8 °F 82% 29.95 in 6.2 mi West 17.3 mph - N/A   Mostly Cloudy
8:25 PM 48.2 °F 42.8 °F 82% 29.95 in 6.2 mi West 18.4 mph - N/A   Mostly Cloudy
8:31 PM 48.2 °F 42.8 °F 82% 29.95 in 6.2 mi West 18.4 mph - N/A   Mostly Cloudy
8:38 PM 48.2 °F 42.8 °F 82% 29.95 in 6.2 mi West 17.3 mph - N/A   Mostly Cloudy
8:51 PM 48.2 °F 42.8 °F 82% 29.98 in 6.2 mi West 18.4 mph - N/A   Mostly Cloudy
8:55 PM 48.2 °F 42.8 °F 82% 29.98 in 6.2 mi West 18.4 mph - N/A   Mostly Cloudy
8:59 PM 48.2 °F 42.8 °F 82% 29.98 in 6.2 mi West 19.6 mph - N/A   Mostly Cloudy
9:07 PM 48.2 °F 42.8 °F 82% 29.98 in 6.2 mi West 17.3 mph - N/A   Mostly Cloudy
9:14 PM 48.2 °F 42.8 °F 82% 29.98 in 6.2 mi West 18.4 mph - N/A   Mostly Cloudy
9:25 PM 48.2 °F 42.8 °F 82% 29.98 in 6.2 mi West 18.4 mph - N/A   Mostly Cloudy
9:55 PM 48.2 °F 42.8 °F 82% 29.98 in 6.2 mi West 17.3 mph - N/A   Light Drizzle
10:01 PM 48.2 °F 42.8 °F 82% 29.98 in 6.2 mi West 16.1 mph - N/A   Drizzle
10:08 PM 48.2 °F 42.8 °F 82% 29.98 in 6.2 mi West 18.4 mph - N/A   Drizzle
10:16 PM 48.2 °F 42.8 °F 82% 30.01 in 6.2 mi West 19.6 mph - N/A   Mostly Cloudy
10:25 PM 48.2 °F 41.0 °F 76% 30.01 in 6.2 mi West 16.1 mph - N/A   Partly Cloudy
10:38 PM 48.2 °F 42.8 °F 82% 30.01 in 6.2 mi West 18.4 mph - N/A   Scattered Clouds
10:49 PM 48.2 °F 41.0 °F 76% 30.01 in 6.2 mi West 18.4 mph - N/A   Mostly Cloudy
10:55 PM 48.2 °F 41.0 °F 76% 30.01 in 6.2 mi West 18.4 mph - N/A   Mostly Cloudy
11:25 PM 48.2 °F 41.0 °F 76% 30.01 in 6.2 mi West 18.4 mph - N/A   Overcast
11:55 PM 48.2 °F 41.0 °F 76% 30.01 in 6.2 mi West 19.6 mph - N/A   Overcast